Weather Roundup
Issued by NWS

Home | Current Version | Previous Version | Graphics & Text | Print | Product List | Glossary Off
Versions: 1 2 3 4 5 6 7 8 9 10 11 12 13 14 15 16 17 18 19 20 21 22 23 24 25 26 27 28 29 30 31 32 33 34 35 36 37 38 39 40 41 42 43 44 45 46 47 48 49 50

950
NZUS93 KARX 200259
HRRWXR

CURRENT HOURLY OBSERVATIONS ACROSS
MUCH OF THE UPPER MISSISSIPPI VALLEY
NATIONAL WEATHER SERVICE LA CROSSE WI
900 PM CST THU JAN 19 2017


...SOUTHEAST MINNESOTA...


CITY           SKY/WX    TMP DP  RH WIND       PRES   REMARKS
ROCHESTER      LGT RAIN  33  33 100 E8        29.70F FOG     WCI  26
ROCHESTER/MAYO CLOUDY    35  35 100 E7        29.71F WCI  29
WINONA         LGT RAIN  34  34 100 CALM      29.76S
AUSTIN         LGT SNOW  34  32  93 SE3       29.69F
ALBERT LEA     FOG       36  36 100 SE5       29.68F VSB 1   WCI  32
DODGE CENTER   MIX PCPN  34  34 100 SE3       29.69F
PRESTON        LGT RAIN  33  32  96 E6        29.71F WCI  28
OWATONNA       DRIZZLE   37  36  93 SE3       29.69F
FARIBAULT        N/A     36  34  93 CALM      29.70F FOG
$$

...ELSEWHERE IN MINNESOTA...


CITY           SKY/WX    TMP DP  RH WIND       PRES   REMARKS
MINNEAPOLIS    CLOUDY    36  31  82 SE8       29.72F WCI  30
INTNL FALLS    CLEAR     37  34  89 VRB7      29.62F FOG     WCI  32
DULUTH         CLOUDY    36  33  89 S7        29.71F WCI  30
RED WING       CLOUDY    37  32  81 SE8       29.72F WCI  31
REDWOOD FALLS  CLOUDY    35  33  92 E5        29.67F FOG     WCI  31
MANKATO        MOCLDY    35  33  92 S5        29.68F FOG     WCI  31
WORTHINGTON    LGT RAIN  34  34 100 SE9       29.65F VSB 1/2 WCI  27
FAIRMONT       FOG       34  33  96 SE8       29.67F VSB 1   WCI  27
$$

...SOUTHWEST WISCONSIN...


CITY           SKY/WX    TMP DP  RH WIND       PRES   REMARKS
LA CROSSE      LGT RAIN  39  35  86 E5        29.76S FOG
PRAIRIE DU CHI CLOUDY    36  35  96 E6        29.74F FOG     WCI  31
BOSCOBEL       LGT RAIN  36  35  96 NE3       29.77S FOG
LONE ROCK      NOT AVBL
PLATTEVILLE    CLOUDY    35  35 100 E9        29.75S WCI  28
FORT MC COY    LGT RAIN  34  34  99 E3        29.78S
CAMP DOUGLAS   LGT RAIN  34  32  93 E5        29.77S WCI  30
MAUSTON-NEW LI LGT RAIN  35  33  95 CALM      29.77F
VIROQUA        CLOUDY    34  34 100 SE8       29.74F WCI  27
WIS DELLS      LGT RAIN  33  33  98 E5        29.77F VSB 1   WCI  29
$$

...ELSEWHERE IN WISCONSIN...


CITY           SKY/WX    TMP DP  RH WIND       PRES   REMARKS
MILWAUKEE      LGT RAIN  38  36  92 SE6       29.82F VSB 1/4 WCI  33
MADISON        CLOUDY    35  34  96 E3        29.80S FOG
GREEN BAY      FOG       34  34 100 E3        29.83F VSB 1/4
EAU CLAIRE     NOT AVBL
BLACK RVR FLS  CLOUDY    35  35 100 CALM      29.77S FOG
MEDFORD        FOG       31  31  99 NE5       29.76F VSB 1/2 WCI  26
WAUSAU         FOG       31  31 100 E3        29.77F VSB 1/2
WIS RAPIDS     CLOUDY    34  32  92 E6        29.79F WCI  29
MARSHFIELD     MOCLDY    32  31  96 E6        29.76S FOG     WCI  26
RICE LAKE      CLOUDY    36  32  86 E5        29.76F WCI  32
$$

...NORTHEAST IOWA...


CITY           SKY/WX    TMP DP  RH WIND       PRES   REMARKS
WATERLOO       CLOUDY    36  35  96 SE8       29.70F FOG     WCI  30
DUBUQUE        CLOUDY    36  35  96 SE9       29.73F FOG     WCI  29
DECORAH        CLOUDY    36  36 100 SE8       29.70F FOG     WCI  29
MASON CITY     FOG       34  33  96 SE7       29.70F VSB 1/4 WCI  28
CHARLES CITY   CLOUDY    36  36 100 SE10      29.70F FOG     WCI  28
OELWEIN        CLOUDY    36  36 100 SE12      29.70F FOG     WCI  27
$$

...ELSEWHERE IN IOWA...


CITY           SKY/WX    TMP DP  RH WIND       PRES   REMARKS
DES MOINES     DRZL/FOG  38  37  97 CALM      29.69S VSB 1/2
IOWA CITY      CLOUDY    38  37  97 E5        29.71F FOG     WCI  34
FORT DODGE     CLOUDY    36  34  93 CALM      29.68F VSB 1
MARSHALLTOWN   FOG       35  35 100 E5        29.68F VSB 1/4 WCI  31
CEDAR RAPIDS   CLOUDY    36  36 100 E7        29.69F FOG     WCI  30
$$

...NORTHERN ILLINOIS...


CITY           SKY/WX    TMP DP  RH WIND       PRES   REMARKS
CHICAGO-OHARE  LGT RAIN  38  37  97 E7        29.79F FOG     WCI  33
CHICAGO-MIDWAY LGT RAIN  38  38 100 E7        29.79F FOG     WCI  33
MOLINE         CLOUDY    38  36  92 E7        29.72F FOG     WCI  33
ROCKFORD       LGT RAIN  39  37  92 E3        29.79F FOG
PEORIA         CLOUDY    40  40 100 E12       29.70F FOG     WCI  33
$$

NOTE: "FAIR" INDICATES FEW OR NO CLOUDS BELOW 12,000 FEET WITH NO
SIGNIFICANT WEATHER AND/OR OBSTRUCTIONS TO VISIBILITY. WIND
SPEEDS ARE IN MILES-PER-HOUR.




USA.gov is the U.S. government's official web portal to all federal, state and local government web resources and services.